NOZ2NU ENGM-EIDW

Flight info

Callsign NOZ2NU
Flight time 1h 53m
Altitude 38000
Route ATLAP DCT ALOTI DCT NELBO DCT NIMAT
Aircraft B738/M-SDE2E3FGHIRWXY/LB1

Departure

Time 2026-05-01 11:26
Airport Oslo-Gardermoen International Airport (ENGM)

Arrival

Time 2026-05-01 13:19
Airport Dublin Airport (EIDW)
Time Latitude Longitude Altitude Speed Heading
2026-05-01 11:13 60.19416 11.10464 684 ft 0 kts 196°
2026-05-01 11:18 60.19425 11.10469 678 ft 3 kts 196°
2026-05-01 11:18 60.19447 11.10481 681 ft 3 kts 196°
2026-05-01 11:19 60.19468 11.10493 676 ft 3 kts 196°
2026-05-01 11:19 60.19489 11.10506 676 ft 3 kts 196°
2026-05-01 11:19 60.19508 11.10503 677 ft 3 kts 174°
2026-05-01 11:19 60.19524 11.10493 678 ft 3 kts 118°
2026-05-01 11:20 60.19528 11.10479 675 ft 0 kts 110°
2026-05-01 11:22 60.19526 11.10491 678 ft 5 kts 109°
2026-05-01 11:23 60.19507 11.10618 680 ft 13 kts 106°
2026-05-01 11:23 60.19476 11.10834 679 ft 17 kts 105°
2026-05-01 11:23 60.19443 11.11061 681 ft 17 kts 107°
2026-05-01 11:23 60.19412 11.11281 682 ft 16 kts 105°
2026-05-01 11:24 60.19443 11.11462 681 ft 16 kts 20°
2026-05-01 11:24 60.19548 11.11524 682 ft 15 kts 16°
2026-05-01 11:24 60.19707 11.11655 680 ft 9 kts 71°
2026-05-01 11:25 60.19697 11.11784 683 ft 9 kts 116°
2026-05-01 11:25 60.19608 11.11948 683 ft 9 kts 184°
2026-05-01 11:25 60.19587 11.11938 683 ft 1 kts 195°
2026-05-01 11:26 60.19339 11.11799 682 ft 75 kts 196°
2026-05-01 11:26 60.17600 11.10796 1087 ft 157 kts 194°
2026-05-01 11:26 60.16551 11.10193 2030 ft 155 kts 198°
2026-05-01 11:27 60.15547 11.09654 2952 ft 154 kts 198°
2026-05-01 11:27 60.14396 11.09017 3363 ft 190 kts 199°
2026-05-01 11:27 60.13023 11.08252 3629 ft 220 kts 195°
2026-05-01 11:27 60.11399 11.07836 3949 ft 250 kts 189°
2026-05-01 11:28 60.09610 11.07507 4643 ft 260 kts 190°
2026-05-01 11:28 60.07811 11.07129 5625 ft 261 kts 193°
2026-05-01 11:28 60.06147 11.05897 6552 ft 252 kts 219°
2026-05-01 11:29 60.04018 11.00536 8357 ft 248 kts 244°
2026-05-01 11:29 60.03236 10.97406 9139 ft 254 kts 245°
2026-05-01 11:29 60.01690 10.90962 10672 ft 267 kts 245°
2026-05-01 11:30 60.00848 10.87453 10859 ft 292 kts 245°
2026-05-01 11:30 59.99941 10.83698 11066 ft 314 kts 245°
2026-05-01 11:30 59.98967 10.79693 11622 ft 324 kts 245°
2026-05-01 11:30 59.97978 10.75649 12425 ft 325 kts 245°
2026-05-01 11:31 59.96977 10.71580 13268 ft 327 kts 245°
2026-05-01 11:31 59.95969 10.67492 14099 ft 330 kts 245°
2026-05-01 11:31 59.94947 10.63359 14846 ft 333 kts 245°
2026-05-01 11:31 59.93916 10.59203 15638 ft 335 kts 245°
2026-05-01 11:32 59.92877 10.55022 16443 ft 338 kts 245°
2026-05-01 11:32 59.91828 10.50808 17163 ft 341 kts 245°
2026-05-01 11:32 59.90764 10.46545 17905 ft 345 kts 245°
2026-05-01 11:32 59.89686 10.42237 18617 ft 349 kts 244°
2026-05-01 11:33 59.88600 10.37901 19253 ft 352 kts 244°
2026-05-01 11:33 59.87872 10.35003 19663 ft 354 kts 244°
2026-05-01 11:33 59.86762 10.30587 20245 ft 358 kts 244°
2026-05-01 11:33 59.85637 10.26122 20829 ft 363 kts 244°
2026-05-01 11:34 59.84497 10.21609 21367 ft 368 kts 244°
2026-05-01 11:34 59.83340 10.17036 21886 ft 372 kts 244°
2026-05-01 11:34 59.82171 10.12423 22509 ft 374 kts 244°
2026-05-01 11:34 59.80993 10.07785 23040 ft 378 kts 244°
2026-05-01 11:35 59.79799 10.03098 23553 ft 382 kts 244°
2026-05-01 11:35 59.78591 9.98362 24014 ft 386 kts 244°
2026-05-01 11:35 59.77370 9.93587 24462 ft 389 kts 244°
2026-05-01 11:35 59.76263 9.89265 24893 ft 391 kts 244°
2026-05-01 11:36 59.75024 9.84441 25333 ft 394 kts 244°
2026-05-01 11:36 59.73775 9.79587 25745 ft 397 kts 244°
2026-05-01 11:36 59.72514 9.74697 26144 ft 400 kts 244°
2026-05-01 11:36 59.71257 9.69833 26557 ft 402 kts 244°
2026-05-01 11:37 59.69976 9.64887 26965 ft 405 kts 244°
2026-05-01 11:37 59.68685 9.59912 27334 ft 408 kts 244°
2026-05-01 11:37 59.67382 9.54903 27702 ft 410 kts 244°
2026-05-01 11:37 59.66064 9.49849 28065 ft 414 kts 244°
2026-05-01 11:38 59.64736 9.44764 28446 ft 416 kts 244°
2026-05-01 11:38 59.63403 9.39678 28811 ft 418 kts 243°
2026-05-01 11:38 59.62058 9.34553 29154 ft 421 kts 243°
2026-05-01 11:38 59.60706 9.29414 29462 ft 424 kts 243°
2026-05-01 11:39 59.59341 9.24238 29815 ft 426 kts 243°
2026-05-01 11:39 59.57970 9.19053 30312 ft 424 kts 243°
2026-05-01 11:39 59.56624 9.13973 30792 ft 421 kts 243°
2026-05-01 11:39 59.55270 9.08877 31256 ft 419 kts 243°
2026-05-01 11:40 59.53916 9.03788 31629 ft 418 kts 243°
2026-05-01 11:40 59.52560 8.98705 31996 ft 418 kts 243°
2026-05-01 11:40 59.51204 8.93633 32423 ft 416 kts 243°
2026-05-01 11:40 59.49870 8.88654 32859 ft 414 kts 243°
2026-05-01 11:41 59.48527 8.83656 33292 ft 412 kts 243°
2026-05-01 11:41 59.47187 8.78676 33672 ft 411 kts 243°
2026-05-01 11:41 59.45849 8.73712 34042 ft 411 kts 243°
2026-05-01 11:41 59.44508 8.68750 34405 ft 409 kts 243°
2026-05-01 11:42 59.43172 8.63819 34725 ft 409 kts 243°
2026-05-01 11:42 59.41834 8.58892 34969 ft 410 kts 243°
2026-05-01 11:42 59.40488 8.53945 35228 ft 410 kts 243°
2026-05-01 11:42 59.39140 8.49002 35535 ft 410 kts 243°
2026-05-01 11:43 59.37796 8.44083 35884 ft 408 kts 243°
2026-05-01 11:43 59.36457 8.39195 36180 ft 408 kts 243°
2026-05-01 11:43 59.35111 8.34290 36364 ft 409 kts 243°
2026-05-01 11:44 59.32411 8.24481 36955 ft 408 kts 242°
2026-05-01 11:44 59.31057 8.19583 37228 ft 408 kts 242°
2026-05-01 11:44 59.29705 8.14699 37458 ft 408 kts 242°
2026-05-01 11:44 59.28350 8.09813 37681 ft 409 kts 242°
2026-05-01 11:45 59.26993 8.04932 37943 ft 409 kts 242°
2026-05-01 11:45 59.25649 8.00108 38188 ft 408 kts 242°
2026-05-01 11:45 59.22925 7.90364 38250 ft 408 kts 242°
2026-05-01 11:46 59.20192 7.80626 38258 ft 408 kts 242°
2026-05-01 11:46 59.17454 7.70915 38262 ft 408 kts 242°
2026-05-01 11:47 59.14727 7.61282 38266 ft 409 kts 242°
2026-05-01 11:47 59.11969 7.51581 38275 ft 409 kts 242°
2026-05-01 11:48 59.09208 7.41911 38283 ft 409 kts 241°
2026-05-01 11:48 59.06439 7.32250 38282 ft 408 kts 241°
2026-05-01 11:49 59.03682 7.22675 38289 ft 408 kts 241°
2026-05-01 11:49 59.00901 7.13058 38291 ft 408 kts 241°
2026-05-01 11:50 58.98117 7.03465 38286 ft 408 kts 241°
2026-05-01 11:50 58.95322 6.93879 38295 ft 409 kts 241°
2026-05-01 11:51 58.92516 6.84295 38284 ft 409 kts 240°
2026-05-01 11:51 58.89703 6.74726 38284 ft 409 kts 240°
2026-05-01 11:52 58.86881 6.65163 38280 ft 409 kts 240°
2026-05-01 11:52 58.84050 6.55613 38285 ft 410 kts 240°
2026-05-01 11:53 58.81209 6.46068 38284 ft 410 kts 240°
2026-05-01 11:53 58.78360 6.36533 38283 ft 411 kts 240°
2026-05-01 11:54 58.75497 6.26994 38289 ft 411 kts 240°
2026-05-01 11:54 58.72622 6.17451 38281 ft 412 kts 240°
2026-05-01 11:55 58.69758 6.07986 38280 ft 412 kts 239°
2026-05-01 11:55 58.66870 5.98477 38286 ft 412 kts 239°
2026-05-01 11:56 58.63976 5.88990 38276 ft 411 kts 239°
2026-05-01 11:56 58.61075 5.79519 38285 ft 411 kts 239°
2026-05-01 11:57 58.58166 5.70059 38292 ft 411 kts 239°
2026-05-01 11:57 58.55249 5.60611 38272 ft 412 kts 239°
2026-05-01 11:58 58.52325 5.51180 38290 ft 411 kts 239°
2026-05-01 11:59 58.47933 5.37081 38282 ft 411 kts 239°
2026-05-01 11:59 58.44999 5.27712 38273 ft 411 kts 239°
2026-05-01 12:00 58.40595 5.13716 38277 ft 411 kts 238°
2026-05-01 12:01 58.36151 4.99680 38273 ft 412 kts 238°
2026-05-01 12:01 58.33240 4.90529 38263 ft 412 kts 238°
2026-05-01 12:02 58.30243 4.81146 38256 ft 412 kts 238°
2026-05-01 12:02 58.27279 4.71901 38270 ft 412 kts 238°
2026-05-01 12:03 58.24281 4.62590 38260 ft 413 kts 238°
2026-05-01 12:03 58.21273 4.53284 38259 ft 413 kts 238°
2026-05-01 12:04 58.18258 4.43990 38255 ft 414 kts 238°
2026-05-01 12:04 58.15235 4.34711 38256 ft 414 kts 237°
2026-05-01 12:05 58.12202 4.25436 38248 ft 414 kts 237°
2026-05-01 12:05 58.07658 4.11609 38254 ft 414 kts 237°
2026-05-01 12:06 58.04604 4.02357 38239 ft 415 kts 237°
2026-05-01 12:06 58.01542 3.93120 38246 ft 415 kts 237°
2026-05-01 12:07 57.98468 3.83882 38234 ft 415 kts 237°
2026-05-01 12:07 57.95394 3.74679 38236 ft 415 kts 237°
2026-05-01 12:08 57.92317 3.65497 38234 ft 415 kts 237°
2026-05-01 12:08 57.89252 3.56276 38232 ft 415 kts 238°
2026-05-01 12:09 57.86304 3.47009 38237 ft 415 kts 238°
2026-05-01 12:09 57.83347 3.37675 38232 ft 416 kts 238°
2026-05-01 12:10 57.78881 3.23713 38224 ft 416 kts 238°
2026-05-01 12:11 57.74387 3.09790 38224 ft 416 kts 237°
2026-05-01 12:11 57.71403 3.00594 38220 ft 416 kts 237°
2026-05-01 12:12 57.68389 2.91340 38211 ft 416 kts 237°
2026-05-01 12:12 57.65373 2.82119 38208 ft 416 kts 237°
2026-05-01 12:13 57.62348 2.72903 38202 ft 416 kts 237°
2026-05-01 12:13 57.59317 2.63705 38199 ft 416 kts 237°
2026-05-01 12:14 57.56279 2.54525 38194 ft 416 kts 237°
2026-05-01 12:14 57.53251 2.45405 38196 ft 416 kts 237°
2026-05-01 12:15 57.50201 2.36257 38197 ft 416 kts 237°
2026-05-01 12:15 57.47143 2.27119 38195 ft 416 kts 237°
2026-05-01 12:16 57.44077 2.17994 38194 ft 416 kts 237°
2026-05-01 12:16 57.41003 2.08877 38205 ft 416 kts 237°
2026-05-01 12:17 57.37921 1.99775 38201 ft 416 kts 236°
2026-05-01 12:17 57.34852 1.90742 38205 ft 417 kts 236°
2026-05-01 12:18 57.31795 1.81778 38197 ft 417 kts 236°
2026-05-01 12:18 57.28688 1.72706 38194 ft 417 kts 236°
2026-05-01 12:19 57.26105 1.65186 38193 ft 417 kts 236°
2026-05-01 12:19 57.22987 1.56143 38187 ft 417 kts 236°
2026-05-01 12:20 57.19858 1.47102 38189 ft 417 kts 236°
2026-05-01 12:20 57.16727 1.38087 38186 ft 418 kts 236°
2026-05-01 12:21 57.13587 1.29081 38187 ft 418 kts 236°
2026-05-01 12:21 57.10440 1.20091 38194 ft 418 kts 236°
2026-05-01 12:22 57.07304 1.11164 38180 ft 418 kts 236°
2026-05-01 12:22 57.04139 1.02189 38185 ft 418 kts 236°
2026-05-01 12:23 57.00964 0.93218 38182 ft 418 kts 236°
2026-05-01 12:23 56.97784 0.84264 38179 ft 419 kts 236°
2026-05-01 12:24 56.94593 0.75315 38184 ft 419 kts 235°
2026-05-01 12:24 56.91417 0.66440 38179 ft 419 kts 235°
2026-05-01 12:25 56.86612 0.53076 38173 ft 419 kts 235°
2026-05-01 12:26 56.83391 0.44160 38179 ft 419 kts 235°
2026-05-01 12:26 56.78558 0.30840 38166 ft 420 kts 235°
2026-05-01 12:27 56.73701 0.17530 38173 ft 420 kts 235°
2026-05-01 12:28 56.68824 0.04237 38167 ft 421 kts 235°
2026-05-01 12:29 56.63957 -0.08957 38163 ft 421 kts 234°
2026-05-01 12:29 56.59047 -0.22193 38165 ft 421 kts 234°
2026-05-01 12:30 56.54117 -0.35413 38161 ft 422 kts 234°
2026-05-01 12:31 56.50818 -0.44219 38156 ft 422 kts 234°
2026-05-01 12:31 56.47513 -0.53009 38165 ft 422 kts 234°
2026-05-01 12:32 56.44195 -0.61802 38161 ft 423 kts 234°
2026-05-01 12:32 56.39229 -0.74902 38156 ft 423 kts 234°
2026-05-01 12:33 56.35891 -0.83668 38155 ft 423 kts 234°
2026-05-01 12:33 56.32548 -0.92414 38152 ft 424 kts 234°
2026-05-01 12:34 56.29199 -1.01146 38153 ft 424 kts 234°
2026-05-01 12:34 56.25835 -1.09887 38151 ft 424 kts 233°
2026-05-01 12:35 56.22468 -1.18604 38149 ft 424 kts 233°
2026-05-01 12:35 56.19095 -1.27305 38152 ft 424 kts 233°
2026-05-01 12:36 56.15712 -1.35999 38149 ft 424 kts 233°
2026-05-01 12:36 56.12349 -1.44613 38147 ft 424 kts 233°
2026-05-01 12:37 56.08957 -1.53269 38142 ft 424 kts 233°
2026-05-01 12:37 56.05557 -1.61916 38143 ft 425 kts 233°
2026-05-01 12:38 56.01953 -1.70280 38147 ft 424 kts 229°
2026-05-01 12:38 55.98127 -1.78301 38136 ft 424 kts 228°
2026-05-01 12:39 55.94287 -1.86321 38135 ft 424 kts 228°
2026-05-01 12:39 55.90473 -1.94355 38133 ft 424 kts 229°
2026-05-01 12:40 55.86665 -2.02405 38129 ft 425 kts 229°
2026-05-01 12:40 55.82879 -2.10398 38130 ft 425 kts 229°
2026-05-01 12:41 55.79060 -2.18434 38122 ft 425 kts 228°
2026-05-01 12:41 55.75229 -2.26466 38120 ft 426 kts 228°
2026-05-01 12:42 55.71393 -2.34482 38113 ft 426 kts 228°
2026-05-01 12:42 55.67551 -2.42483 38110 ft 426 kts 228°
2026-05-01 12:43 55.63700 -2.50475 38109 ft 426 kts 228°
2026-05-01 12:43 55.59846 -2.58448 38104 ft 426 kts 228°
2026-05-01 12:44 55.55989 -2.66403 38099 ft 426 kts 228°
2026-05-01 12:45 55.48330 -2.82117 38100 ft 425 kts 227°
2026-05-01 12:45 55.44470 -2.89998 38104 ft 424 kts 227°
2026-05-01 12:46 55.40635 -2.97804 38113 ft 424 kts 227°
2026-05-01 12:46 55.36774 -3.05635 38108 ft 424 kts 227°
2026-05-01 12:47 55.32909 -3.13452 38114 ft 423 kts 227°
2026-05-01 12:47 55.29037 -3.21256 38113 ft 424 kts 227°
2026-05-01 12:48 55.25163 -3.29038 38117 ft 423 kts 227°
2026-05-01 12:48 55.21278 -3.36817 38123 ft 424 kts 227°
2026-05-01 12:49 55.17390 -3.44578 38123 ft 424 kts 227°
2026-05-01 12:49 55.13526 -3.52266 38133 ft 423 kts 227°
2026-05-01 12:50 55.09628 -3.59998 38135 ft 423 kts 227°
2026-05-01 12:50 55.05728 -3.67709 38135 ft 423 kts 226°
2026-05-01 12:51 55.01827 -3.75397 38144 ft 423 kts 226°
2026-05-01 12:52 54.95960 -3.86911 38142 ft 424 kts 226°
2026-05-01 12:52 54.90078 -3.98403 38143 ft 424 kts 226°
2026-05-01 12:53 54.84211 -4.09809 38142 ft 424 kts 226°
2026-05-01 12:54 54.80263 -4.17454 37789 ft 429 kts 226°
2026-05-01 12:54 54.76292 -4.25120 36685 ft 425 kts 226°
2026-05-01 12:54 54.74314 -4.28931 36052 ft 425 kts 225°
2026-05-01 12:55 54.70352 -4.36543 34666 ft 427 kts 225°
2026-05-01 12:55 54.68357 -4.40366 33942 ft 428 kts 225°
2026-05-01 12:55 54.66359 -4.44189 33119 ft 430 kts 225°
2026-05-01 12:56 54.64353 -4.48021 32383 ft 429 kts 225°
2026-05-01 12:56 54.62366 -4.51815 31889 ft 423 kts 225°
2026-05-01 12:56 54.60399 -4.55563 31346 ft 419 kts 225°
2026-05-01 12:56 54.58450 -4.59273 30826 ft 415 kts 225°
2026-05-01 12:57 54.56517 -4.62945 30309 ft 412 kts 225°
2026-05-01 12:57 54.52696 -4.70184 29163 ft 403 kts 224°
2026-05-01 12:57 54.50826 -4.73721 28637 ft 398 kts 224°
2026-05-01 12:58 54.48972 -4.77221 28112 ft 393 kts 224°
2026-05-01 12:58 54.47132 -4.80688 27580 ft 389 kts 224°
2026-05-01 12:58 54.45316 -4.84108 27058 ft 385 kts 224°
2026-05-01 12:59 54.41750 -4.90805 26044 ft 378 kts 224°
2026-05-01 12:59 54.39978 -4.94125 25547 ft 375 kts 224°
2026-05-01 12:59 54.36471 -5.00684 24559 ft 370 kts 223°
2026-05-01 13:00 54.33012 -5.07134 23525 ft 366 kts 223°
2026-05-01 13:00 54.31294 -5.10333 22973 ft 363 kts 223°
2026-05-01 13:01 54.27903 -5.16633 21949 ft 356 kts 223°
2026-05-01 13:01 54.26248 -5.19702 21460 ft 353 kts 223°
2026-05-01 13:01 54.22939 -5.25827 20494 ft 348 kts 223°
2026-05-01 13:02 54.21303 -5.28850 20026 ft 345 kts 223°
2026-05-01 13:07 53.86585 -5.77914 10952 ft 269 kts 191°
2026-05-01 13:07 53.84788 -5.78548 10629 ft 259 kts 191°
2026-05-01 13:07 53.83051 -5.79166 10271 ft 252 kts 191°
2026-05-01 13:08 53.81337 -5.79780 9939 ft 251 kts 191°
2026-05-01 13:08 53.79641 -5.80389 9650 ft 248 kts 191°
2026-05-01 13:08 53.77959 -5.80996 9340 ft 246 kts 191°
2026-05-01 13:08 53.76284 -5.81601 8995 ft 246 kts 191°
2026-05-01 13:09 53.74609 -5.82207 8660 ft 246 kts 191°
2026-05-01 13:09 53.72934 -5.82812 8275 ft 248 kts 191°
2026-05-01 13:09 53.71246 -5.83423 7932 ft 248 kts 191°
2026-05-01 13:09 53.69586 -5.84024 7622 ft 247 kts 192°
2026-05-01 13:10 53.67910 -5.84630 7331 ft 246 kts 192°
2026-05-01 13:10 53.66243 -5.85233 7044 ft 245 kts 192°
2026-05-01 13:10 53.64585 -5.85833 6749 ft 243 kts 192°
2026-05-01 13:10 53.62928 -5.86431 6459 ft 242 kts 192°
2026-05-01 13:11 53.61285 -5.87024 6158 ft 241 kts 192°
2026-05-01 13:11 53.59649 -5.87614 5864 ft 240 kts 192°
2026-05-01 13:11 53.58022 -5.88200 5575 ft 239 kts 192°
2026-05-01 13:11 53.56396 -5.88786 5235 ft 240 kts 192°
2026-05-01 13:12 53.54768 -5.89372 5026 ft 236 kts 192°
2026-05-01 13:12 53.53214 -5.89931 4961 ft 221 kts 192°
2026-05-01 13:12 53.51754 -5.90456 4850 ft 208 kts 192°
2026-05-01 13:12 53.50385 -5.90947 4743 ft 195 kts 192°
2026-05-01 13:13 53.49101 -5.91408 4605 ft 184 kts 192°
2026-05-01 13:13 53.47883 -5.91845 4511 ft 174 kts 192°
2026-05-01 13:13 53.46708 -5.92266 4425 ft 173 kts 192°
2026-05-01 13:13 53.45505 -5.92697 4273 ft 179 kts 192°
2026-05-01 13:14 53.44263 -5.93142 4076 ft 185 kts 192°
2026-05-01 13:14 53.43010 -5.93590 3876 ft 187 kts 192°
2026-05-01 13:14 53.41779 -5.94179 3632 ft 183 kts 211°
2026-05-01 13:14 53.41086 -5.95855 3453 ft 179 kts 257°
2026-05-01 13:15 53.40932 -5.97890 3222 ft 176 kts 259°
2026-05-01 13:15 53.40841 -5.99899 3082 ft 166 kts 265°
2026-05-01 13:15 53.40832 -6.01834 2944 ft 170 kts 268°
2026-05-01 13:15 53.40898 -6.03823 2725 ft 170 kts 271°
2026-05-01 13:16 53.40994 -6.05787 2492 ft 168 kts 271°
2026-05-01 13:16 53.41096 -6.07710 2262 ft 164 kts 271°
2026-05-01 13:16 53.41198 -6.09620 2016 ft 167 kts 271°
2026-05-01 13:17 53.41487 -6.14877 1355 ft 137 kts 270°
2026-05-01 13:17 53.41578 -6.16447 1182 ft 135 kts 272°
2026-05-01 13:18 53.41728 -6.19419 969 ft 127 kts 270°
2026-05-01 13:18 53.41800 -6.20953 768 ft 134 kts 272°
2026-05-01 13:18 53.41886 -6.22520 626 ft 136 kts 272°
2026-05-01 13:18 53.41972 -6.24093 388 ft 132 kts 273°
2026-05-01 13:19 53.42054 -6.25573 218 ft 121 kts 272°
2026-05-01 13:19 53.42121 -6.26800 220 ft 85 kts 275°
2026-05-01 13:19 53.42271 -6.28054 211 ft 22 kts 300°
2026-05-01 13:20 53.42344 -6.28112 216 ft 12 kts 34°
2026-05-01 13:20 53.42358 -6.27977 210 ft 12 kts 95°
2026-05-01 13:20 53.42351 -6.27822 214 ft 15 kts 95°
2026-05-01 13:21 53.42327 -6.27407 210 ft 21 kts 95°
2026-05-01 13:21 53.42312 -6.27146 212 ft 24 kts 95°
2026-05-01 13:21 53.42296 -6.26858 210 ft 26 kts 95°
2026-05-01 13:21 53.42279 -6.26549 216 ft 26 kts 95°
2026-05-01 13:22 53.42263 -6.26257 214 ft 24 kts 94°
2026-05-01 13:22 53.42272 -6.25987 214 ft 23 kts 68°
2026-05-01 13:22 53.42370 -6.25785 213 ft 22 kts 45°
2026-05-01 13:22 53.42477 -6.25603 210 ft 22 kts 45°
2026-05-01 13:23 53.42580 -6.25426 209 ft 21 kts 45°
2026-05-01 13:23 53.42673 -6.25267 210 ft 17 kts 46°
2026-05-01 13:23 53.42746 -6.25143 210 ft 14 kts 45°
2026-05-01 13:23 53.42745 -6.25010 210 ft 13 kts 142°
2026-05-01 13:24 53.42671 -6.24921 212 ft 13 kts 125°
2026-05-01 13:24 53.42698 -6.24792 210 ft 12 kts 55°
2026-05-01 13:24 53.42756 -6.24740 210 ft 5 kts
2026-05-01 13:25 53.42768 -6.24740 210 ft 0 kts